CAPE
895 1157 1692 1220 1141 1172 1147 692 475 714 1070 1015 966 1207 1491 1324 1597 1417 1355 1031 1012 960 884 963 742 472 267 163 139 367 318 355 399 442 406 465 630 137 43 43 22 21 302
1051 1126 1855 1343 1408 1102 1239 1060 656 462 711 907 1075 959 1365 1481 1388 1380 1188 1065 909 869 1003 979 813 811 564 319 161 355 368 283 428 377 295 527 594 145 16 173 218 94 212
1162 1271 1116 2107 2062 1366 1643 1294 1013 693 431 555 780 946 1158 1321 1459 1419 1169 985 1032 1116 1233 1067 960 715 478 325 209 219 237 341 334 253 397 326 433 423 32 148 418 271 269
1264 1303 1001 2321 2570 1984 1492 1566 1197 738 502 865 1034 846 1162 1367 1482 1387 1111 922 1070 1164 1313 1120 781 559 507 283 104 162 274 269 209 123 65 117 167 350 240 42 80 136 305
1459 1334 1116 2820 2714 2284 2190 1675 1383 1030 496 1356 780 1236 1060 1445 1450 1319 1104 1038 1165 1302 1233 1140 944 605 508 267 75 164 186 144 66 114 117 307 353 346 210 92 68 74 235
1676 1516 1653 2813 2870 2451 2395 2110 1637 1280 710 1315 972 1021 1480 1440 1459 1287 1099 1118 1256 1270 1192 1109 881 635 307 181 130 112 68 43 95 111 211 203 248 292 210 148 211 409 231
1803 1654 1370 2593 2491 2520 2642 2210 1856 1452 928 1075 1153 1616 1520 1400 1394 1235 1171 1421 1210 1276 1243 1008 782 525 172 76 15 10 14 0 19 84 119 108 128 248 175 132 129 106 102
1890 1729 1522 2494 2581 2572 2465 2277 1874 1277 933 969 1207 1579 1451 1446 1422 1300 1308 1496 1275 1254 1227 944 665 528 216 45 1 0 0 0 1 25 52 59 173 74 87 94 108 116 97
1921 1878 2003 2201 2004 2505 2539 2399 1901 1163 1201 1034 1213 1563 1568 1481 1358 1505 1365 1489 1375 1435 1257 987 757 456 84 30 0 0 0 0 1 8 15 30 145 45 76 77 93 95 95
2080 2082 2123 2298 2078 2054 2148 2525 2312 2130 2005 1804 1805 1717 1932 1964 1615 1545 1476 1442 1425 1345 1039 873 691 323 148 0 0 0 0 0 1 6 16 52 73 67 71 65 60 53 77
2072 2151 2121 2190 2035 1910 1797 2153 2454 2341 1713 1731 1926 1799 1656 1694 1567 1432 1381 1667 1367 1249 996 836 632 233 46 1 0 0 0 0 0 9 17 118 56 47 55 59 62 64 66
2040 2128 2118 2080 2084 2019 1730 1886 1784 1758 1641 1353 1584 1462 1400 1430 1545 1373 1249 1553 1353 1248 1005 759 557 118 31 0 0 0 0 0 0 12 27 53 31 38 35 28 24 23 24
1653 1805 1975 2104 2006 1875 1834 1860 1661 1507 1776 1427 1272 1303 1237 1306 1555 1431 1450 1256 1305 1110 1207 794 377 36 0 0 0 0 0 0 0 15 44 60 35 24 26 22 22 32 32
434 1224 1779 1762 1776 1728 1747 1684 1433 1204 1149 1170 1011 911 960 778 1147 1191 1289 860 1134 1026 927 591 137 0 0 0 0 0 0 2 8 18 35 56 50 31 47 50 45 44 34
97 503 1031 1246 1457 1561 1440 731 577 393 709 756 618 579 599 541 561 310 276 253 526 756 683 190 6 0 0 0 0 0 0 2 8 13 34 48 71 74 67 63 51 38 23
39 117 362 727 1031 1135 1140 329 325 483 287 230 233 345 216 288 257 291 181 208 370 435 271 20 0 0 0 0 0 0 0 3 6 26 31 66 95 98 66 60 49 33 17
0 0 0 159 536 904 822 240 235 316 321 249 196 112 61 152 246 312 325 334 507 389 237 7 0 0 0 0 0 0 0 9 5 17 55 81 76 85 67 46 26 24 23
0 0 0 0 43 378 428 216 112 155 277 224 253 136 79 46 126 174 166 160 211 109 199 41 0 0 0 0 0 0 1 20 3 15 16 24 44 62 60 62 38 26 24
0 0 0 0 0 28 262 152 64 50 117 215 268 177 252 268 33 14 140 231 174 68 124 14 6 2 0 0 0 0 0 21 11 11 6 11 18 42 49 66 62 41 23
0 0 0 0 0 0 11 104 26 20 24 54 188 324 355 402 197 13 86 206 108 121 16 20 6 6 2 2 1 0 0 6 2 6 8 17 29 35 33 30 40 32 36
0 0 0 0 0 0 0 3 6 2 1 1 140 364 560 358 292 195 121 207 302 65 71 9 6 3 5 2 0 1 0 1 0 7 14 41 31 17 17 22 23 32 37
0 0 0 0 0 0 0 0 0 5 4 12 40 120 482 266 310 254 250 194 74 165 8 17 5 8 6 3 1 0 70 15 1 10 17 23 16 2 0 0 5 6 9
0 0 0 0 0 0 0 0 0 0 0 8 3 42 209 305 219 271 266 247 101 94 26 10 6 7 5 8 0 17 42 13 19 0 2 3 0 0 0 0 0 0 0
0 0 0 0 0 0 0 0 0 0 0 2 22 61 62 66 103 164 55 4 17 143 78 13 16 9 11 2 3 0 1 3 2 7 0 0 0 0 0 0 0 0 0
0 0 0 0 0 0 0 0 0 0 0 1 2 1 2 6 27 115 73 83 192 137 66 6 7 2 0 0 0 0 0 0 0 0 2 0 0 0 0 0 0 0 0
1 1 0 0 1 0 0 0 0 0 2 1 3 1 3 4 68 57 90 134 198 177 145 66 5 3 2 2 2 0 1 5 0 0 1 1 1 0 0 0 0 0 0
CIN
-84 -35 0 -3 -2 -1 0 -12 -23 -4 0 0 0 -1 0 0 0 0 0 -1 0 -2 -6 -2 -1 -12 -42 -63 -85 -16 -25 -22 -14 -8 -18 -8 -1 -65 -31 -14 0 0 -6
-91 -52 0 -7 -1 -4 0 -3 -13 -31 -5 0 0 0 0 0 0 0 0 0 0 -2 -4 -2 0 0 -1 -28 -56 -16 -13 -24 -9 -6 -27 -8 -1 -70 -34 -50 -28 -52 -8
-103 -57 -48 0 0 0 -2 -2 -1 -10 -38 -17 0 0 0 0 0 0 -1 -2 -2 0 0 0 0 0 -1 -2 -31 -29 -37 -16 -13 -18 -11 -31 -14 -13 -15 -55 -7 -7 -5
-86 -69 -97 0 0 0 -1 -1 0 -15 -43 -3 0 0 0 0 0 0 0 -1 -1 0 0 0 0 0 -1 -3 -40 -39 -16 -24 -37 -65 -45 -70 -50 -20 -40 -14 -9 -65 -7
-51 -54 -77 0 0 0 0 -3 0 -2 -62 -1 -4 -1 0 0 0 0 0 -1 0 0 0 0 0 0 0 -4 -64 -23 -39 -60 -126 -90 -74 -18 -15 -22 -42 0 0 0 -23
-36 -30 -10 0 0 -1 -2 -3 -5 0 -38 -1 -3 -4 0 0 0 0 0 -2 0 0 0 0 0 0 -4 -21 -33 -60 -105 -194 -106 -70 -30 -27 -22 -17 -41 -68 -50 -4 -35
-37 -26 -25 0 0 -1 -1 -1 -2 -1 -22 -10 -5 -1 0 -1 0 0 -1 0 0 0 0 0 0 0 -15 -85 -174 -147 -15 0 -61 -116 -69 -94 -65 -17 -42 0 0 0 0
-41 -28 -16 0 0 -1 -2 -1 -1 -3 -22 -25 -3 0 -1 0 0 0 0 0 0 0 0 0 0 0 -7 -89 0 0 0 0 0 -1 0 0 -41 0 0 0 0 0 0
-28 -21 -1 0 0 0 -2 -1 0 -6 -4 -9 0 0 -1 -1 0 0 -2 0 0 0 0 0 0 -2 -37 -95 0 0 0 0 0 0 0 0 -88 -1 0 0 0 0 0
-16 -15 -6 -1 -1 0 0 -1 0 0 0 0 0 -1 -1 -1 -1 -1 -1 0 0 0 0 0 0 -2 -13 0 0 0 0 0 0 0 0 0 0 0 0 0 0 0 0
-11 -6 -7 -5 -5 -11 -7 -2 -1 0 -2 -2 -1 -1 -1 0 0 0 -1 0 0 0 0 0 0 -6 -13 -2 0 0 0 0 0 0 0 -67 0 0 -1 0 0 0 0
-23 -19 -15 -11 -7 -10 -16 -7 -3 -1 -1 -2 0 0 -1 0 0 0 -2 -1 0 0 0 0 0 -16 -26 0 0 0 0 0 0 0 0 -2 -4 0 0 -1 0 0 0
-64 -39 -25 -16 -16 -15 -14 -15 -15 -18 -7 -11 -7 -8 -8 -1 0 0 0 0 0 0 0 0 0 -35 0 0 0 0 0 0 0 0 -6 -5 -3 -1 0 0 0 0 0
-153 -77 -38 -35 -27 -26 -23 -15 -20 -25 -27 -16 -21 -25 -20 -24 -4 -1 0 -2 0 0 0 -1 -10 0 0 0 0 0 0 0 0 -1 -4 -2 0 0 0 0 -1 0 0
-243 -122 -78 -65 -47 -34 -28 -69 -74 -82 -50 -47 -56 -52 -41 -35 -25 -47 -45 -58 -29 -1 -1 -28 -44 0 0 0 0 0 0 0 0 -2 -3 -2 -1 -1 0 0 0 0 0
-380 -236 -130 -85 -72 -62 -54 -118 -93 -65 -76 -95 -99 -61 -73 -52 -46 -41 -69 -66 -51 -38 -40 -162 -14 0 0 0 0 0 0 0 -1 -8 -3 -8 -4 0 0 0 0 0 0
0 -11 -31 -165 -99 -68 -67 -125 -132 -98 -88 -113 -138 -104 -111 -78 -55 -37 -33 -56 -34 -52 -58 -96 0 0 0 0 0 0 0 0 -4 -12 -15 -5 -1 -1 -1 -2 0 0 0
0 0 0 0 -87 -93 -84 -121 -107 -176 -103 -123 -88 -90 -100 -97 -67 -48 -48 -71 -75 -82 -41 -55 0 0 0 0 0 0 0 0 -14 -22 -54 -47 -31 -10 -5 -3 -1 0 0
0 0 0 0 0 -90 -79 -140 -103 -98 -79 -62 -50 -79 -45 -32 -113 -101 -52 -31 -55 -72 -38 -18 0 0 0 0 0 0 0 0 -19 -28 -44 -49 -46 -23 -5 -7 -3 0 0
0 0 0 0 0 0 -42 -109 -85 -99 -81 -63 -45 -47 -35 -15 -39 -60 -39 -8 -29 -24 -64 -66 0 0 0 0 0 0 0 -12 -48 -51 -44 -16 -12 -8 -7 -6 -5 -2 -1
0 0 0 0 0 0 0 -1 -37 0 -1 -1 -45 -38 -15 -29 -27 -27 -37 -4 0 -11 -10 -21 0 0 0 0 0 -26 0 -77 -1 -59 -23 -6 -8 -9 -7 -4 -2 -1 0
0 0 0 0 0 0 0 0 0 0 0 -15 -76 -53 -19 -37 -30 -37 -26 -9 -7 -10 -87 -56 0 0 0 0 -31 -2 -1 -9 -8 -30 -19 -8 -6 -6 0 0 -1 -2 -4
0 0 0 0 0 0 0 0 0 0 0 -26 -29 -85 -46 -39 -52 -35 -39 -24 -35 -26 -65 -71 -109 -65 0 0 0 -10 -9 0 -8 0 -21 -4 0 0 0 0 0 0 0
0 0 0 0 0 0 0 0 0 0 -1 -8 -66 -59 -71 -73 -63 -39 -98 -46 -42 -2 -3 -81 -43 -9 0 0 -1 0 -10 -87 -1 -1 0 0 0 0 0 0 0 0 0
0 0 0 0 0 0 0 0 0 0 0 0 0 0 -1 -89 -65 -29 -27 -18 -3 0 -6 -58 -53 -12 -3 -2 -3 0 -59 0 0 0 0 0 0 0 0 0 0 0 0
0 0 0 0 0 0 0 0 0 0 0 0 0 0 0 -40 -48 -62 -38 -30 -26 -10 -10 -46 -63 -24 0 -6 -1 0 -31 -130 0 0 -83 0 0 0 0 0 0 0 0
Wind_Speed
6 12 13 13 12 13 12 12 10 9 8 9 8 8 9 8 8 9 9 9 11 10 12 16 16 17 17 15 16 16 17 17 18 17 17 17 16 20 21 18 16 19 21
12 13 14 13 13 12 10 13 10 8 7 7 8 8 7 8 8 8 8 9 9 10 11 14 15 16 17 16 15 15 15 16 16 16 13 13 15 18 20 17 16 19 22
14 14 15 13 12 13 11 12 10 8 7 7 6 6 7 6 7 8 7 9 9 10 14 14 16 17 16 17 16 16 15 15 15 15 11 12 14 17 20 17 17 20 22
14 14 13 14 13 12 10 14 11 8 7 7 5 7 5 6 7 8 8 10 11 12 15 15 16 16 16 16 15 15 16 15 15 13 11 12 13 19 19 19 20 20 21
12 12 12 13 13 12 11 14 12 9 7 5 6 4 7 5 7 8 9 12 12 13 14 15 15 15 16 15 14 16 15 16 15 13 12 9 11 16 18 19 20 20 21
13 12 13 13 15 13 13 14 14 10 9 7 7 5 7 7 7 9 10 13 13 13 14 15 14 14 16 14 15 15 15 14 13 13 12 12 13 19 20 19 18 20 21
12 11 12 12 13 12 11 13 13 11 10 9 7 6 5 7 8 11 12 13 13 14 14 15 15 14 15 13 14 15 14 14 12 12 12 12 13 19 20 20 20 21 21
12 11 11 13 11 11 10 13 11 10 11 10 9 8 7 8 11 11 11 13 13 14 14 14 15 14 14 13 13 14 13 11 11 12 12 11 14 18 19 19 20 20 21
10 10 10 10 11 11 10 11 11 11 11 11 10 8 9 8 10 12 10 12 13 14 14 14 14 15 13 13 13 14 13 11 10 9 10 9 15 18 19 19 19 20 21
9 10 11 10 10 10 10 11 12 12 12 11 10 8 6 9 9 11 10 10 12 13 14 14 14 14 13 14 13 13 14 12 10 10 9 9 17 18 19 20 21 20 21
6 9 9 9 9 10 9 9 12 12 12 10 8 7 6 5 7 8 8 9 13 12 14 14 16 15 14 13 13 11 8 6 8 7 8 15 18 19 19 20 18 20 21
10 10 9 10 10 9 7 9 9 8 7 8 7 7 5 7 6 6 7 9 13 13 15 16 17 17 12 8 7 8 5 8 8 7 8 16 19 17 17 17 17 18 19
10 8 10 10 8 8 7 5 2 2 4 5 8 7 6 5 5 5 5 5 6 10 7 11 13 8 9 8 7 7 7 7 6 7 9 14 15 17 17 17 18 18 19
8 9 9 9 9 8 5 4 4 4 4 5 6 7 6 4 6 6 5 5 5 5 10 10 7 9 10 10 11 10 9 7 6 6 8 12 12 17 18 18 17 19 19
8 8 9 8 8 7 7 5 5 5 5 5 6 7 6 6 6 6 5 5 6 7 8 7 8 8 10 11 10 10 10 10 10 5 5 10 15 17 16 18 18 18 18
9 9 7 8 7 7 6 6 5 5 5 6 5 6 8 6 6 5 6 6 7 7 7 7 8 5 8 10 10 11 10 9 9 6 7 7 13 16 17 17 17 17 17
8 6 7 6 6 7 8 8 5 6 6 6 6 5 6 6 7 7 6 7 6 7 10 9 9 5 6 7 10 11 9 10 7 6 5 6 8 12 13 15 15 16 17
6 6 5 3 5 6 7 7 6 6 6 6 6 6 8 7 7 7 5 4 4 4 5 7 6 6 4 5 8 8 9 9 7 6 5 5 5 5 9 13 14 14 15
5 5 4 3 3 6 8 5 6 5 6 4 5 5 10 10 8 3 5 6 7 4 6 8 6 7 6 5 5 5 8 8 6 5 7 7 7 5 6 11 12 11 13
5 3 2 1 1 2 3 3 3 3 3 4 7 7 10 8 10 6 4 5 4 5 5 8 8 6 6 7 7 4 7 6 4 4 5 6 7 8 7 7 5 7 10
5 4 3 3 3 3 2 4 3 3 4 6 7 9 9 8 10 9 6 6 5 6 7 8 7 13 8 4 8 5 7 5 6 3 3 6 7 6 6 5 4 4 6
7 5 4 4 4 4 3 3 3 5 5 5 5 6 8 10 11 10 9 7 5 5 8 9 10 6 5 9 6 5 5 3 2 3 3 4 6 4 5 5 6 5 4
6 5 4 3 3 4 6 3 3 2 2 3 3 5 8 10 11 11 12 9 9 5 6 9 9 10 7 6 10 2 5 4 5 2 3 3 5 4 4 5 5 5 4
6 4 2 1 3 4 6 5 5 3 3 2 2 4 7 10 10 10 12 11 8 7 8 8 8 8 11 9 6 2 1 6 6 6 3 3 3 5 5 3 3 3 3
5 4 3 2 2 2 5 5 4 4 2 2 2 4 7 7 9 12 10 9 11 7 9 10 10 8 10 9 9 3 2 2 2 4 7 6 3 4 3 3 3 3 3
5 4 4 4 4 3 3 4 5 6 5 4 3 4 5 5 7 10 12 12 12 12 13 12 12 12 10 8 6 5 5 5 4 4 3 6 8 4 4 3 4 3 3
Wind_Direction
182 165 168 173 170 150 157 146 136 129 114 116 117 108 111 116 111 114 112 115 109 101 106 104 103 101 92 83 77 72 76 73 70 64 63 59 63 63 60 57 60 61 54
160 169 167 173 176 159 171 146 136 135 136 122 117 117 112 114 120 121 124 120 111 111 107 101 102 97 93 91 82 75 73 76 70 67 61 70 61 70 66 58 56 66 62
160 168 170 176 175 165 167 152 144 142 140 135 137 120 120 124 126 125 123 125 122 112 107 107 102 96 95 92 89 85 75 72 68 62 63 74 68 65 74 63 57 64 63
159 167 171 179 166 162 170 151 148 147 147 148 131 138 132 136 139 125 130 124 120 113 111 108 105 103 100 94 91 85 82 76 67 65 71 66 65 65 74 72 65 59 62
164 169 171 169 164 165 167 157 152 155 161 175 142 154 150 146 136 137 137 129 128 119 115 113 110 108 101 97 96 92 84 80 74 72 71 65 70 69 69 72 71 65 58
165 171 173 175 168 177 183 171 156 165 173 152 151 176 165 149 150 141 132 139 128 126 123 117 115 112 105 102 99 94 89 78 78 76 75 69 75 73 68 67 72 70 63
166 172 177 182 177 180 182 166 162 173 180 172 164 173 146 148 147 140 140 140 135 138 131 128 125 120 110 112 101 96 88 79 80 79 77 76 73 74 70 68 65 67 68
162 171 178 183 187 191 187 170 167 182 184 179 177 150 151 156 139 148 150 149 144 147 141 138 130 124 120 118 109 99 91 84 88 84 80 74 71 74 72 66 65 64 70
164 169 178 183 189 197 199 177 181 187 187 187 185 170 158 168 153 148 158 157 154 154 145 140 134 125 130 125 117 105 94 85 93 91 88 85 75 75 75 71 70 65 63
174 177 181 186 190 196 199 185 185 193 191 191 186 186 151 167 164 157 163 172 165 163 152 144 139 130 131 122 116 109 102 94 94 96 89 85 85 77 74 69 64 65 61
191 195 191 190 193 196 199 199 191 197 205 204 186 177 159 162 175 168 172 178 174 167 158 152 145 137 132 120 115 106 100 105 102 93 94 95 90 81 77 74 71 70 70
200 201 199 197 197 195 198 200 201 199 204 201 188 175 162 167 173 175 178 185 179 173 159 154 145 143 145 133 122 110 106 111 101 95 88 87 87 88 84 85 86 83 82
205 201 199 198 201 199 201 196 187 205 197 190 184 171 169 162 170 180 183 187 188 174 164 156 153 155 145 137 134 123 121 114 108 99 97 99 111 105 101 97 94 90 85
196 199 200 198 195 197 180 184 182 185 181 185 186 178 176 178 182 174 170 164 182 182 170 159 160 149 144 142 138 134 133 129 119 103 113 108 110 110 104 99 96 89 86
210 202 195 188 194 188 181 170 183 192 194 194 188 189 185 186 191 172 178 174 162 160 168 157 150 158 149 143 137 136 136 133 121 110 117 112 109 107 103 101 94 94 90
206 206 195 197 193 181 174 170 184 187 190 196 200 202 198 189 182 184 174 178 172 173 169 143 154 160 151 149 141 139 137 133 123 121 120 119 114 109 106 104 102 98 95
212 204 205 208 198 194 181 187 178 193 195 194 198 182 200 201 195 185 178 170 179 170 159 152 142 114 138 150 150 139 140 143 121 101 108 109 105 101 110 107 113 99 99
201 198 185 200 208 203 201 200 191 197 195 197 196 186 189 190 198 188 187 169 155 152 150 155 145 135 131 145 144 139 136 143 110 92 88 85 92 111 99 110 113 105 103
191 192 189 151 174 211 208 212 208 208 209 194 185 183 195 195 175 167 188 178 158 147 151 152 159 155 156 119 110 131 129 136 105 97 92 90 77 77 103 106 96 105 103
150 158 153 107 222 190 194 180 165 189 201 207 206 200 201 195 178 146 168 188 172 158 147 149 141 132 140 130 107 90 105 108 84 85 101 114 105 94 98 89 96 112 104
153 161 177 213 223 173 152 187 202 204 192 208 216 214 203 189 181 171 162 174 180 174 163 155 143 134 114 111 95 97 74 74 98 93 155 119 117 113 110 102 96 100 101
151 156 186 218 220 196 185 182 184 186 200 204 203 216 212 201 190 171 162 168 187 153 152 159 151 143 138 164 142 129 142 128 90 102 131 137 138 137 131 121 123 107 92
155 165 196 231 233 202 191 166 147 137 120 155 186 206 201 187 182 173 169 170 157 139 175 172 166 166 154 167 147 217 137 171 141 144 166 173 167 165 154 149 139 122 114
159 164 153 205 219 189 182 188 190 177 182 178 183 200 196 191 185 178 180 176 166 179 178 168 173 173 157 165 177 298 145 136 171 166 174 191 200 188 176 166 157 136 131
150 137 92 88 107 165 183 185 167 172 168 145 185 165 175 172 180 175 184 176 182 176 195 171 171 174 175 169 185 153 106 118 169 143 169 179 202 204 201 208 189 188 167
132 118 101 107 68 78 125 153 171 165 170 173 149 170 163 169 191 194 190 197 194 190 188 181 180 178 175 174 178 169 178 166 179 143 131 175 195 183 198 216 222 210 200